Weather History for KONP - November, 2013

Change the Weather History Date:

Saturday, November 16, 2013

  Actual Average Record
Temperature  
Mean Temperature 48 °F -  
Max Temperature 51 °F 52 °F 68 °F (2008)
Min Temperature 46 °F 43 °F 33 °F (2014)
Degree Days  
Heating Degree Days 16    
Moisture  
Dew Point 44 °F    
Average Humidity 83    
Maximum Humidity 100    
Minimum Humidity 67    
Precipitation  
Precipitation 0.06 in - - ()
Sea Level Pressure  
Sea Level Pressure 29.81 in    
Wind  
Wind Speed 10 mph (West)    
Max Wind Speed 24 mph    
Max Gust Speed 30 mph    
Visibility 6 miles    
Events Rain    
Averages and records for this station are not official NWS values.
T = Trace of Precipitation, MM = Missing Value Source: NWS Daily Summary

Daily Weather History Graph

Daily Weather History Graph

Search for Another Location

Airport or City:

Trip Planner

Search our weather history database for the weather conditions in past years. The results will help you decide how hot, cold, wet, or windy it might be!

Date:

Astronomy

Nov. 16, 2013 Rise Set
Actual Time 7:14 AM PST 4:47 PM PST
Civil Twilight 6:42 AM PST 5:18 PM PST
Nautical Twilight 6:07 AM PST 5:54 PM PST
Astronomical Twilight 5:33 AM PST 6:28 PM PST
Moon 4:27 PM PST (11/16) 6:14 AM PST (11/16)
Length of Visible Light 10h 35m
Length of Day
9h 32m
Waxing Gibbous, 99% of the Moon is Illuminated
Nov 16
Waxing Gibbous
Nov 17
Full
Nov 25
Last Quarter
Dec 2
New
Dec 9
First Quarter

Hourly Weather History & Observations

Time (PST) Temp. Windchill Dew Point Humidity Pressure Visibility Wind Dir Wind Speed Gust Speed Precip Events Conditions
12:15 AM 48.2 °F - 48.2 °F 100% 29.71 in 5.0 mi WSW 11.5 mph 19.6 mph 0.01 in Rain Light Rain
12:35 AM 50.0 °F - 48.2 °F 94% 29.70 in 7.0 mi WSW 10.4 mph 16.1 mph 0.01 in   Overcast
12:55 AM 50.0 °F - 48.2 °F 94% - 7.0 mi WSW 9.2 mph - 0.01 in   Overcast
1:15 AM 50.0 °F - 50.0 °F 100% 29.69 in 7.0 mi West 16.1 mph 27.6 mph N/A   Overcast
1:35 AM 50.0 °F - 46.4 °F 87% 29.69 in 7.0 mi WNW 10.4 mph - N/A   Light Drizzle
1:55 AM 50.0 °F - 46.4 °F 87% 29.69 in 7.0 mi West 9.2 mph - N/A   Mostly Cloudy
2:15 AM 48.2 °F - 46.4 °F 93% 29.69 in 4.0 mi NW 24.2 mph 29.9 mph N/A Rain Rain
2:35 AM 46.4 °F 40.7 °F 44.6 °F 93% 29.70 in 3.0 mi NW 12.7 mph 25.3 mph 0.01 in Rain Light Rain
2:55 AM 46.4 °F 40.4 °F 46.4 °F 100% 29.70 in 7.0 mi WNW 13.8 mph - 0.01 in   Overcast
3:15 AM 48.2 °F - 44.6 °F 87% 29.70 in 5.0 mi West 10.4 mph 16.1 mph N/A   Light Drizzle
3:35 AM 50.0 °F - 46.4 °F 87% 29.70 in 7.0 mi WNW 10.4 mph - N/A   Overcast
3:55 AM 50.0 °F - 44.6 °F 82% 29.70 in 7.0 mi NW 19.6 mph 29.9 mph N/A Rain Rain
4:15 AM 48.2 °F - 44.6 °F 87% 29.71 in 7.0 mi WNW 11.5 mph 19.6 mph N/A   Overcast
4:35 AM 50.0 °F - 44.6 °F 82% 29.71 in 5.0 mi WNW 6.9 mph - N/A   Overcast
4:55 AM 50.0 °F - 44.6 °F 82% 29.72 in 5.0 mi NW 18.4 mph 26.5 mph N/A Rain Light Rain
5:15 AM 46.4 °F 42.4 °F 44.6 °F 93% 29.72 in 5.0 mi NW 8.1 mph 20.7 mph N/A Rain Light Rain
5:35 AM 48.2 °F - 42.8 °F 82% 29.72 in 7.0 mi NW 15.0 mph 21.9 mph N/A   Overcast
5:55 AM 46.4 °F 42.9 °F 42.8 °F 87% 29.73 in 7.0 mi NW 6.9 mph - N/A   Mostly Cloudy
6:15 AM 46.4 °F 40.4 °F 44.6 °F 93% 29.73 in - WNW 13.8 mph 18.4 mph N/A   Unknown
6:35 AM 48.2 °F - 42.8 °F 82% 29.74 in 5.0 mi NW 10.4 mph 18.4 mph N/A Rain Light Rain
6:55 AM 46.4 °F 43.5 °F 42.8 °F 87% 29.75 in - WNW 5.8 mph - N/A   Unknown
7:15 AM 46.4 °F 41.9 °F 44.6 °F 93% 29.75 in 5.0 mi NNW 9.2 mph - N/A   Overcast
7:35 AM 48.2 °F - 42.8 °F 82% 29.76 in 5.0 mi NW 8.1 mph - N/A   Haze
7:55 AM 48.2 °F - 42.8 °F 82% 29.77 in - West 10.4 mph - N/A   Overcast
8:15 AM 46.4 °F 42.9 °F 42.8 °F 87% 29.77 in - SW 6.9 mph - N/A   Unknown
8:35 AM 48.2 °F - 44.6 °F 87% 29.77 in - SW 8.1 mph - N/A   Unknown
8:55 AM 48.2 °F - 44.6 °F 87% 29.78 in 4.0 mi SW 4.6 mph - N/A   Overcast
9:15 AM 48.2 °F - 44.6 °F 87% 29.79 in 4.0 mi Calm Calm - N/A Rain Rain
9:35 AM 50.0 °F - 42.8 °F 76% 29.80 in 4.0 mi NNW 6.9 mph - N/A   Haze
9:55 AM 50.0 °F - 44.6 °F 82% 29.80 in 4.0 mi West 4.6 mph - N/A   Haze
10:15 AM 50.0 °F - 44.6 °F 82% 29.81 in 4.0 mi West 3.5 mph - N/A   Haze
10:35 AM 48.2 °F - 42.8 °F 82% 29.82 in 3.0 mi WNW 6.9 mph - 0.03 in Rain Rain
10:55 AM 48.2 °F - 44.6 °F 87% 29.82 in 4.0 mi Calm Calm - 0.04 in Rain Light Rain
11:15 AM 50.0 °F - 44.6 °F 82% 29.82 in 3.0 mi SW 3.5 mph - N/A   Haze
11:35 AM 50.0 °F - 44.6 °F 82% 29.82 in 3.0 mi SW 4.6 mph - N/A Rain Light Rain
11:55 AM 50.0 °F - 44.6 °F 82% 29.81 in 4.0 mi SW 4.6 mph - N/A   Overcast
12:15 PM 50.0 °F - 42.8 °F 76% 29.81 in 5.0 mi WNW 4.6 mph - N/A   Haze
12:35 PM 50.0 °F - 42.8 °F 76% 29.82 in 5.0 mi West 3.5 mph - N/A   Haze
12:55 PM 51.8 °F - 44.6 °F 76% 29.82 in 4.0 mi WSW 5.8 mph - N/A   Haze
1:15 PM 51.8 °F - 44.6 °F 76% 29.82 in 4.0 mi West 6.9 mph - N/A   Haze
1:35 PM 51.8 °F - 42.8 °F 71% 29.82 in 5.0 mi WSW 10.4 mph 16.1 mph N/A   Haze
1:55 PM 51.8 °F - 41.0 °F 67% 29.82 in 5.0 mi West 10.4 mph - N/A   Haze
2:15 PM 51.8 °F - 42.8 °F 71% 29.82 in 5.0 mi WSW 6.9 mph - N/A   Haze
2:35 PM 51.8 °F - 42.8 °F 71% 29.83 in 5.0 mi WSW 8.1 mph - N/A   Haze
2:55 PM 50.0 °F - 41.0 °F 71% 29.83 in 5.0 mi WSW 8.1 mph - N/A Rain Light Rain
3:15 PM 50.0 °F - 41.0 °F 71% 29.84 in 5.0 mi WSW 8.1 mph - N/A   Haze
3:35 PM 50.0 °F - 42.8 °F 76% 29.85 in 5.0 mi WNW 12.7 mph 17.3 mph N/A   Haze
3:55 PM 50.0 °F - 41.0 °F 71% 29.84 in 7.0 mi West 10.4 mph - N/A   Overcast
4:15 PM 50.0 °F - 41.0 °F 71% 29.84 in 5.0 mi West 8.1 mph 16.1 mph N/A   Haze
4:35 PM 50.0 °F - 42.8 °F 76% 29.85 in 5.0 mi NW 6.9 mph - N/A   Haze
4:55 PM 50.0 °F - 42.8 °F 76% 29.85 in 5.0 mi West 4.6 mph - N/A   Haze
5:15 PM 50.0 °F - 42.8 °F 76% 29.86 in 5.0 mi SW 4.6 mph - N/A   Haze
5:35 PM 50.0 °F - 44.6 °F 82% 29.86 in 5.0 mi West 4.6 mph - N/A   Haze
5:55 PM 50.0 °F - 42.8 °F 76% 29.87 in 7.0 mi West 9.2 mph - N/A   Overcast
6:15 PM 50.0 °F - 42.8 °F 76% 29.87 in 7.0 mi West 8.1 mph - N/A   Overcast
6:35 PM 50.0 °F - 42.8 °F 76% 29.87 in 7.0 mi West 15.0 mph 19.6 mph N/A Rain Light Rain
6:55 PM 48.2 °F - 42.8 °F 82% 29.88 in 7.0 mi SW 8.1 mph - N/A Rain Light Rain
7:15 PM 50.0 °F - 41.0 °F 71% 29.88 in 7.0 mi WSW 9.2 mph - N/A   Overcast
7:35 PM 50.0 °F - 41.0 °F 71% 29.88 in 7.0 mi SW 6.9 mph - N/A   Overcast
7:55 PM 50.0 °F - 42.8 °F 76% 29.88 in 5.0 mi SW 6.9 mph - N/A   Haze
8:15 PM 48.2 °F - 44.6 °F 87% 29.88 in 5.0 mi South 4.6 mph - N/A   Overcast
8:35 PM 46.4 °F 43.5 °F 42.8 °F 87% 29.89 in 7.0 mi South 5.8 mph - N/A   Overcast
8:55 PM 46.4 °F 44.3 °F 44.6 °F 93% 29.90 in 7.0 mi South 4.6 mph - N/A   Overcast
9:15 PM 50.0 °F - 44.6 °F 82% 29.90 in 5.0 mi SW 6.9 mph - N/A   Overcast
9:35 PM 50.0 °F - 44.6 °F 82% 29.90 in 5.0 mi SW 12.7 mph 17.3 mph N/A   Overcast
9:55 PM 50.0 °F - 44.6 °F 82% 29.90 in 7.0 mi SW 11.5 mph - N/A   Overcast
10:15 PM 50.0 °F - 44.6 °F 82% 29.91 in 5.0 mi WSW 11.5 mph 21.9 mph N/A   Drizzle
10:35 PM 46.4 °F 41.9 °F 44.6 °F 93% 29.91 in 5.0 mi SW 9.2 mph - N/A Rain Light Rain
10:55 PM 46.4 °F 43.5 °F 44.6 °F 93% 29.91 in 7.0 mi SW 5.8 mph - N/A   Overcast
11:15 PM 48.2 °F - 44.6 °F 87% 29.92 in 7.0 mi SSW 8.1 mph - N/A   Overcast
11:35 PM 48.2 °F - 44.6 °F 87% 29.93 in 7.0 mi South 9.2 mph - N/A   Overcast
11:55 PM 46.4 °F 42.4 °F 44.6 °F 93% 29.93 in 7.0 mi South 8.1 mph - N/A   Overcast